SCP
0 0 0 0 0 0 0 0 0 0 0 0 0 0 0 0 0 0 0 0 0 0 0 0 0 0 0 0 0 0 0 0
0 0 0 0 0 0 0 0 0 0 0 0 0 0 0 0 0 0 0 0 0 0 0 0 0 0 0 0 0 0 0 0
0 0 0 0 0 0 0 0 0 0 0 0 0 0 0 0 0 0 0 0 0 0 0 0 0 0 0 0 0 0 0 0
0 0 0 0 0 0 0 0 0 0 0 0 0 0 0 0 0 0 0 0 0 0 0 0 0 0 0 0 0 0 0 0
0 0 0 0 0 0 0 0 0 0 0 0 0 0 0 0 0 0 0 0 0 0 0 0 0 0 0 0 0 0 0 0
0 0 0 0 0 0 0 0 0 0 0 0 0 0 0 0 0 0 0 0 0 0 0 0 0 0 0 0 0 0 0 0
0 0 0 0 0 0 0 0 0 0 0 0 0 0 0 0 0 0 0 0 0 0 0 0 0 0 0 0 0 0 0 0
0 0 0 0 0 0 0 0 0 0 0 0 0 0 0 0 0 0 0 0 0 0 0 0 0 0 0 0 0 0 0 0
0 0 0 0 0 0 0 0 0 0 0 0 0 0 0 0 0 0 0 0 0 0 0 0 0 0 0 0 0 0 0 0
0 0 0 0 0 0 0 0 0 0 0 0 0 0 0 0 0 0 0 0 0 0 0 0 0 0 0 0 0 0 0 0
0 0 0 0 0 0 0 0 0 0 0 0 0 0 0 0 -0 0 0 0 0 0 0 0 0 0 0 0 0 0 0 0
0 0 0 0 0 0 0 0 0 0 0 0 0 0 0 0 0 0 -0 0 0 0 0 0 0 0 0 0 0 0 0 0
0 0 0 0 0 0 0 0 0 0 0 0 0 0 0 0 0 0 0 0 0 0 0 0 0 0 0 0 0 0 0 0
0 0 0 0 0 0 0 0 0 0 0 0 0 0 0 0 0 0 0 0 0 0 0 0 0 0 0 0 0 0 0 0
0 0 0 0 0 0 0 0 0 0 0 0 0 0 0 0 0 0 0 0 0 0 0 0 0 0 0 0 0 0 0 0
0 0 0 0 0 0 0 0 0 0 0 0 0 0 0 0 0 0 0 0 0 0 0 0 0 0 0 0 0 0 0 0
0 0 0 0 0 0 0 0 0 0 0 0 0 0 0 0 0 0 0 0 0 0 0 0 0 0 0 0 0 0 0 0
0 0 0 0 0 0 0 0 0 0 0 0 0 0 0 0 0 0 0 0 0 0 0 0 0 0 0 0 0 0 0 0
0 0 0 0 0 0 0 0 0 0 0 0 0 0 0 0 0 0 0 0 0 0 0 0 0 0 0 0 0 0 0 0
0 0 0 0 0 0 0 0 0 0 0 0 0 0 0 0 0 0 0 0 0 0 0 0 0 0 0 0 0 0 0 0
Wind_Speed_500mb
51 49 45 40 37 34 29 24 20 21 23 24 28 32 38 43 49 54 54 52 49 46 44 44 43 45 45 49 49 51 54 56
52 46 41 39 38 35 29 22 20 20 20 21 24 30 35 40 46 52 54 52 47 44 43 43 43 41 43 43 48 52 55 57
47 42 40 37 35 32 27 22 19 19 17 18 21 26 31 37 44 50 52 48 43 41 41 41 41 40 40 41 45 52 56 55
46 42 36 36 35 33 27 23 21 18 16 15 18 21 27 34 41 47 49 46 43 44 43 39 38 38 37 40 45 47 49 51
41 37 36 38 37 33 29 24 21 18 14 12 16 18 25 31 38 44 48 46 44 43 41 38 39 36 38 43 45 42 39 40
46 42 41 41 40 38 34 27 22 21 14 12 15 16 23 28 35 40 47 44 46 47 44 38 38 44 46 43 37 33 31 29
41 40 42 42 41 38 34 27 24 24 15 15 15 13 21 26 30 35 40 45 48 50 52 49 47 48 45 44 40 29 28 31
40 38 36 38 39 39 32 31 27 27 16 19 16 12 19 23 25 30 36 39 44 47 50 52 52 51 47 45 41 35 29 26
33 34 35 37 41 39 38 31 30 30 20 22 18 12 14 21 21 26 32 37 42 45 48 50 51 51 51 46 41 36 30 28
32 29 31 37 40 41 38 34 34 31 22 25 22 17 9 17 17 20 23 30 36 40 42 45 48 52 53 49 46 41 36 30
26 26 29 33 38 40 38 37 35 31 24 28 27 21 12 15 17 18 22 25 29 33 35 38 42 45 46 48 50 49 44 39
19 19 20 30 35 39 40 42 28 33 32 30 32 26 18 16 15 14 16 20 23 27 31 33 35 38 41 43 44 46 46 47
17 18 25 33 39 41 45 30 34 39 35 33 34 31 26 20 18 14 13 17 18 18 22 24 27 30 33 37 40 41 41 44
17 22 27 34 41 45 40 38 41 45 41 38 38 36 33 28 23 20 15 14 15 16 16 18 21 23 24 27 30 34 39 42
14 15 20 31 37 41 43 44 49 51 49 46 45 41 40 36 30 27 23 19 16 15 14 13 14 17 20 24 27 28 30 33
23 22 23 29 35 37 42 48 58 60 57 57 52 48 45 41 37 33 29 25 21 17 17 16 14 14 16 18 20 21 22 27
31 37 37 40 44 44 44 47 57 65 68 66 62 56 52 48 44 39 34 29 25 22 21 19 17 14 15 16 17 17 17 16
43 48 48 45 44 43 44 50 55 62 68 71 70 65 60 56 52 47 39 35 30 26 24 22 19 17 16 16 16 16 15 13
50 50 48 45 42 39 43 47 56 59 64 70 73 72 67 62 56 49 46 40 33 30 28 24 21 19 18 19 18 17 16 15
42 43 46 48 42 39 44 47 50 55 62 65 70 74 71 65 60 55 50 44 38 35 31 26 23 20 19 20 22 23 21 18
Wind_Direction_500mb
212 218 226 230 238 238 254 268 283 301 313 321 333 336 343 345 344 343 338 332 327 324 321 317 313 307 301 297 295 290 285 281
211 218 226 235 234 236 250 260 278 296 308 324 331 340 345 347 348 345 344 339 336 334 330 325 321 316 307 302 300 294 289 285
209 217 226 235 234 236 246 252 270 285 303 318 334 339 346 351 353 351 351 348 348 345 341 337 330 324 316 310 303 300 295 291
210 220 232 234 234 236 236 244 262 276 290 317 324 337 348 356 357 359 358 359 3 356 348 345 341 336 329 316 310 307 302 297
216 233 236 236 235 236 231 240 254 266 278 303 311 339 351 357 0 3 3 4 12 3 355 351 348 343 335 329 323 319 312 302
232 241 233 232 231 228 229 237 248 254 259 281 295 338 346 355 2 5 8 6 17 12 7 6 8 3 344 334 324 312 314 317
232 228 230 231 228 222 225 235 242 246 247 261 281 326 341 350 3 7 9 11 22 18 13 14 17 8 5 355 345 327 309 304
226 233 236 231 222 220 223 232 238 242 238 254 269 306 335 341 359 6 7 9 20 21 17 19 16 15 11 9 2 357 348 335
228 232 229 219 216 214 220 229 236 237 233 251 260 276 322 328 353 6 3 3 14 16 17 18 19 25 21 15 11 15 17 7
230 222 218 216 214 217 221 227 237 236 230 246 251 259 293 314 335 359 7 0 7 12 16 18 21 24 25 25 23 23 26 26
198 209 211 212 213 220 224 229 236 235 231 242 247 248 260 292 317 346 359 4 3 3 8 16 20 24 25 27 28 29 29 31
206 223 226 222 222 227 229 233 233 231 232 238 246 246 250 271 297 325 347 354 354 355 3 9 18 21 24 27 28 29 30 36
219 226 228 230 230 233 237 238 228 236 238 237 245 246 247 255 275 293 322 328 337 347 351 360 12 18 22 26 29 28 28 34
248 238 236 238 239 241 247 238 233 239 242 242 244 246 245 249 258 269 274 289 308 325 341 348 2 9 18 23 28 28 28 30
252 256 256 256 256 259 253 245 241 242 243 242 243 245 247 247 246 254 262 268 279 296 309 326 345 350 3 13 16 19 24 28
268 273 272 271 269 267 260 251 246 245 242 243 242 242 243 247 248 249 254 262 270 278 288 301 313 330 347 356 356 1 11 20
279 278 280 275 272 266 261 256 250 247 244 241 242 240 240 243 246 248 251 255 263 271 279 286 296 308 318 326 336 342 348 1
282 282 282 280 275 272 261 256 253 251 248 244 243 241 239 239 242 245 248 248 254 260 267 275 282 288 295 300 307 316 323 330
284 283 283 283 276 272 267 260 255 253 251 247 244 244 241 241 241 243 243 248 252 255 257 261 268 278 289 296 298 299 302 300
290 288 286 284 284 276 264 260 257 256 251 250 245 242 242 243 242 243 243 244 245 247 256 260 263 269 281 292 297 298 297 292
Wind_Speed_850mb
51 49 45 40 37 34 29 24 20 21 23 24 28 32 38 43 49 54 54 52 49 46 44 44 43 45 45 49 49 51 54 56
52 46 41 39 38 35 29 22 20 20 20 21 24 30 35 40 46 52 54 52 47 44 43 43 43 41 43 43 48 52 55 57
47 42 40 37 35 32 27 22 19 19 17 18 21 26 31 37 44 50 52 48 43 41 41 41 41 40 40 41 45 52 56 55
46 42 36 36 35 33 27 23 21 18 16 15 18 21 27 34 41 47 49 46 43 44 43 39 38 38 37 40 45 47 49 51
41 37 36 38 37 33 29 24 21 18 14 12 16 18 25 31 38 44 48 46 44 43 41 38 39 36 38 43 45 42 39 40
46 42 41 41 40 38 34 27 22 21 14 12 15 16 23 28 35 40 47 44 46 47 44 38 38 44 46 43 37 33 31 29
41 40 42 42 41 38 34 27 24 24 15 15 15 13 21 26 30 35 40 45 48 50 52 49 47 48 45 44 40 29 28 31
40 38 36 38 39 39 32 31 27 27 16 19 16 12 19 23 25 30 36 39 44 47 50 52 52 51 47 45 41 35 29 26
33 34 35 37 41 39 38 31 30 30 20 22 18 12 14 21 21 26 32 37 42 45 48 50 51 51 51 46 41 36 30 28
32 29 31 37 40 41 38 34 34 31 22 25 22 17 9 17 17 20 23 30 36 40 42 45 48 52 53 49 46 41 36 30
26 26 29 33 38 40 38 37 35 31 24 28 27 21 12 15 17 18 22 25 29 33 35 38 42 45 46 48 50 49 44 39
19 19 20 30 35 39 40 42 28 33 32 30 32 26 18 16 15 14 16 20 23 27 31 33 35 38 41 43 44 46 46 47
17 18 25 33 39 41 45 30 34 39 35 33 34 31 26 20 18 14 13 17 18 18 22 24 27 30 33 37 40 41 41 44
17 22 27 34 41 45 40 38 41 45 41 38 38 36 33 28 23 20 15 14 15 16 16 18 21 23 24 27 30 34 39 42
14 15 20 31 37 41 43 44 49 51 49 46 45 41 40 36 30 27 23 19 16 15 14 13 14 17 20 24 27 28 30 33
23 22 23 29 35 37 42 48 58 60 57 57 52 48 45 41 37 33 29 25 21 17 17 16 14 14 16 18 20 21 22 27
31 37 37 40 44 44 44 47 57 65 68 66 62 56 52 48 44 39 34 29 25 22 21 19 17 14 15 16 17 17 17 16
43 48 48 45 44 43 44 50 55 62 68 71 70 65 60 56 52 47 39 35 30 26 24 22 19 17 16 16 16 16 15 13
50 50 48 45 42 39 43 47 56 59 64 70 73 72 67 62 56 49 46 40 33 30 28 24 21 19 18 19 18 17 16 15
42 43 46 48 42 39 44 47 50 55 62 65 70 74 71 65 60 55 50 44 38 35 31 26 23 20 19 20 22 23 21 18
Wind_Direction_850mb
212 218 226 230 238 238 254 268 283 301 313 321 333 336 343 345 344 343 338 332 327 324 321 317 313 307 301 297 295 290 285 281
211 218 226 235 234 236 250 260 278 296 308 324 331 340 345 347 348 345 344 339 336 334 330 325 321 316 307 302 300 294 289 285
209 217 226 235 234 236 246 252 270 285 303 318 334 339 346 351 353 351 351 348 348 345 341 337 330 324 316 310 303 300 295 291
210 220 232 234 234 236 236 244 262 276 290 317 324 337 348 356 357 359 358 359 3 356 348 345 341 336 329 316 310 307 302 297
216 233 236 236 235 236 231 240 254 266 278 303 311 339 351 357 0 3 3 4 12 3 355 351 348 343 335 329 323 319 312 302
232 241 233 232 231 228 229 237 248 254 259 281 295 338 346 355 2 5 8 6 17 12 7 6 8 3 344 334 324 312 314 317
232 228 230 231 228 222 225 235 242 246 247 261 281 326 341 350 3 7 9 11 22 18 13 14 17 8 5 355 345 327 309 304
226 233 236 231 222 220 223 232 238 242 238 254 269 306 335 341 359 6 7 9 20 21 17 19 16 15 11 9 2 357 348 335
228 232 229 219 216 214 220 229 236 237 233 251 260 276 322 328 353 6 3 3 14 16 17 18 19 25 21 15 11 15 17 7
230 222 218 216 214 217 221 227 237 236 230 246 251 259 293 314 335 359 7 0 7 12 16 18 21 24 25 25 23 23 26 26
198 209 211 212 213 220 224 229 236 235 231 242 247 248 260 292 317 346 359 4 3 3 8 16 20 24 25 27 28 29 29 31
206 223 226 222 222 227 229 233 233 231 232 238 246 246 250 271 297 325 347 354 354 355 3 9 18 21 24 27 28 29 30 36
219 226 228 230 230 233 237 238 228 236 238 237 245 246 247 255 275 293 322 328 337 347 351 360 12 18 22 26 29 28 28 34
248 238 236 238 239 241 247 238 233 239 242 242 244 246 245 249 258 269 274 289 308 325 341 348 2 9 18 23 28 28 28 30
252 256 256 256 256 259 253 245 241 242 243 242 243 245 247 247 246 254 262 268 279 296 309 326 345 350 3 13 16 19 24 28
268 273 272 271 269 267 260 251 246 245 242 243 242 242 243 247 248 249 254 262 270 278 288 301 313 330 347 356 356 1 11 20
279 278 280 275 272 266 261 256 250 247 244 241 242 240 240 243 246 248 251 255 263 271 279 286 296 308 318 326 336 342 348 1
282 282 282 280 275 272 261 256 253 251 248 244 243 241 239 239 242 245 248 248 254 260 267 275 282 288 295 300 307 316 323 330
284 283 283 283 276 272 267 260 255 253 251 247 244 244 241 241 241 243 243 248 252 255 257 261 268 278 289 296 298 299 302 300
290 288 286 284 284 276 264 260 257 256 251 250 245 242 242 243 242 243 243 244 245 247 256 260 263 269 281 292 297 298 297 292